Location: Góry Miechowskie
(50.3599°N, 20.1803°E)
Time: 18:08:56
(UTC+00:00)

Meteor 1-11 - Pass Details

Date: 16 September 2024
Orbit: 841 x 884 km, 81.2° (Epoch: 08 October)

Event Time Altitude Azimuth Distance (km) Brightness Sun altitude
Rises 21:38:37 0° 351° (N) 3,489 8.4 -36.1°
Reaches altitude 10° 21:41:15 10° 359° (N) 2,550 7.4 -36.3°
Enters shadow 21:44:39 30° 26° (NNE) 1,532 5.8 -36.4°
